TITAN 3C TRANSTAGE DEB, 36984

Orbit data source: Space-Track

TITAN 3C TRANSTAGE DEB, 36984 is space debris originally from a launch on Tue, 21 Dec 1965 UTC launched from the Air Force Eastern Test Range (AFETR). Debris objects in space refer to the collection of defunct objects orbiting the Earth. Examples of debris include non-operational satellites, rocket bodies, and fragments generated from explosions, collisions, or faulty payload assembly.

Loading next visibility...
Identifier
36984, 1965-108DQ
Orbit
Active
Country
Flag of USUS
Related business
Manufacturer
Unknown
Mission
Spacecraft
Bus & Motor
Unknown
Mass
Unknown
Launch date (UTC)
1965-12-21 (60 years ago)
Launch vehicle
Unknown
Launch site
Air Force Eastern Test Range (AFETR)
Object type
Payload
Rocket body
Debris
Shape & HBR
Unknown shape, 0.1 m
Radar Cross Section
Small (<0.1 m²)

Expand to show TLE details & history
Last TLE update: 13 hours ago

TLE from 13 hours ago
0 TITAN 3C TRANSTAGE DEB
1 36984U 65108DQ  25348.88727768  .00000779  00000-0  16008-2 0  9995
2 36984  26.3987 222.1581 4096527  49.8339 339.4989  6.77384044629710
Epoch: 2025-12-14T21:17Z
TLE epoch observation values (Epoch: 2025-12-14T21:17:40.791Z)
Latitude
0.00001°
Longitude
178.94441°
Altitude
1,385.72 km
Speed
8.301 km/s
True Right ascension
14h 48m 37s
True Declination
0° 00' 00"
Sunlit
Object was in daylight at epoch
Visualization orbit readout
Latitude
Unknown
Longitude
Unknown
Altitude
Unknown
Speed
Unknown
Apparent Right ascension
Unknown
Apparent Declination
Unknown
Sunlit
N/A
Visualization observer readout
Local Sidereal Time
08:48:32
Azimuth
Unknown
Elevation
Unknown
Doppler factor
Unknown
Orbital elements
Apogee altitude
10,259.242 km
Perigee altitude
589.417 km
Semi-major axis
11,802.467 km
Eccentricity
0.40965
Inclination
26.3987°
RAAN
222.1581°
Arg. of periapsis
49.8339°
True anomaly
310.20945°
Mean anomaly
339.4989°
Eccentric anomaly
326.56712°
Mean motion
1.69272 °/min
Orbital period
212.68 mins
BSTAR
0.0016008
Loading maneuver chart data...
Computing Atmospheric mass density...

Documentation

Showing up to 5 results
|